Cold Bay, AK

9:52 PM AKST on February 19, 2018 (GMT -0900)
Cold Bay

Weather History for PACD - October, 2013

Change the Weather History Date:

Monday, October 7, 2013

  Actual Average Record
Temperature  
Mean Temperature 54 °F 43 °F  
Max Temperature 60 °F 48 °F 60 °F (2013)
Min Temperature 47 °F 38 °F 27 °F (1982)
Degree Days  
Heating Degree Days 11 22  
Month to date heating degree days 123 151  
Since 1 July heating degree days 1252 1497  
Cooling Degree Days 0 0  
Month to date cooling degree days 0 0  
Year to date cooling degree days 0 0  
Growing Degree Days 3 (Base 50)    
Moisture  
Dew Point 48 °F    
Average Humidity 87    
Maximum Humidity 100    
Minimum Humidity 69    
Precipitation  
Precipitation 0.63 in 0.15 in 3.02 in (2012)
Month to date precipitation 0.91 1.08  
Year to date precipitation 33.77 28.55  
Snow  
Snow 0.00 in 0.00 in - ()
Month to date snowfall 0.0 0.1  
Since 1 July snowfall 0.0 0.1  
Since 1 September snowfall 0.0 0.1  
Snow Depth 0.00 in    
Sea Level Pressure  
Sea Level Pressure 29.34 in    
Wind  
Wind Speed 29 mph (SSE)    
Max Wind Speed 64 mph    
Max Gust Speed 81 mph    
Visibility 7 miles    
Events Rain    
T = Trace of Precipitation, MM = Missing Value Source: NWS Daily Summary

Daily Weather History Graph

Daily Weather History Graph

Search for Another Location

Airport or City:

Trip Planner

Search our weather history database for the weather conditions in past years. The results will help you decide how hot, cold, wet, or windy it might be!

Date:

Astronomy

Oct. 07, 2013 Rise Set
Actual Time 9:06 AM AKDT 8:10 PM AKDT
Civil Twilight 8:29 AM AKDT 8:46 PM AKDT
Nautical Twilight 7:47 AM AKDT 9:28 PM AKDT
Astronomical Twilight 7:04 AM AKDT 10:11 PM AKDT
Moon 12:43 PM AKDT (10/7) 9:28 PM AKDT (10/7)
Length of Visible Light 12h 16m
Length of Day
11h 04m
Waxing Crescent, 9% of the Moon is Illuminated
Oct 7
Waxing Crescent
Oct 11
First Quarter
Oct 18
Full
Oct 26
Last Quarter
Nov 3
New

Hourly Weather History & Observations

Time (AKDT) Temp. Windchill Dew Point Humidity Pressure Visibility Wind Dir Wind Speed Gust Speed Precip Events Conditions
12:35 AM 48.2 °F - 44.6 °F 87% 29.76 in 10.0 mi Variable 3.5 mph - N/A   Mostly Cloudy
12:53 AM 48.9 °F - 42.1 °F 77% 29.75 in 10.0 mi SSE 13.8 mph - N/A   Mostly Cloudy
1:53 AM 50.0 °F - 41.0 °F 71% 29.74 in 10.0 mi ESE 12.7 mph 27.6 mph N/A   Mostly Cloudy
2:53 AM 50.0 °F - 41.0 °F 71% 29.74 in 10.0 mi SSE 12.7 mph 24.2 mph N/A   Overcast
3:53 AM 48.0 °F - 44.1 °F 86% 29.70 in 10.0 mi SSE 19.6 mph 33.4 mph 0.00 in Rain Light Rain
4:53 AM 48.9 °F - 44.1 °F 83% 29.69 in 9.0 mi SSE 29.9 mph 41.4 mph 0.00 in Rain Light Rain
5:53 AM 48.0 °F - 44.1 °F 86% 29.66 in 10.0 mi SSE 29.9 mph 40.3 mph 0.00 in   Overcast
6:53 AM 46.9 °F - 44.1 °F 90% 29.63 in 9.0 mi SSE 28.8 mph 39.1 mph N/A   Mostly Cloudy
7:01 AM 46.4 °F 37.9 °F 44.6 °F 93% 29.63 in 7.0 mi SSE 25.3 mph 35.7 mph N/A   Mostly Cloudy
7:53 AM 48.9 °F - 46.0 °F 90% 29.60 in 10.0 mi SSE 25.3 mph 33.4 mph 0.01 in Rain Light Rain
8:53 AM 51.1 °F - 48.0 °F 89% 29.57 in 10.0 mi SSE 18.4 mph 25.3 mph 0.01 in   Mostly Cloudy
9:53 AM 51.1 °F - 48.0 °F 89% 29.56 in 6.0 mi SSE 27.6 mph 35.7 mph 0.00 in Rain Light Rain
10:31 AM 51.8 °F - 48.2 °F 88% 29.55 in 6.0 mi SE 28.8 mph 34.5 mph 0.00 in Rain Light Rain
10:53 AM 51.1 °F - 48.0 °F 89% 29.54 in 6.0 mi SSE 26.5 mph 34.5 mph 0.00 in Rain Light Rain
11:53 AM 51.1 °F - 48.9 °F 92% 29.49 in 8.0 mi SSE 28.8 mph 35.7 mph 0.03 in Rain Light Rain
12:53 PM 52.0 °F - 48.9 °F 89% 29.47 in 9.0 mi SE 26.5 mph 36.8 mph 0.00 in Rain Light Rain
1:17 PM 51.8 °F - 48.2 °F 88% 29.45 in 8.0 mi SE 25.3 mph 31.1 mph 0.02 in Rain Light Rain
1:53 PM 52.0 °F - 48.9 °F 89% 29.44 in 7.0 mi SE 25.3 mph 32.2 mph 0.04 in Rain Light Rain
2:20 PM 51.8 °F - 48.2 °F 88% 29.39 in 7.0 mi ESE 20.7 mph - 0.03 in Rain Rain
2:53 PM 52.0 °F - 50.0 °F 93% 29.34 in 4.0 mi SSE 33.4 mph 41.4 mph 0.11 in Rain Heavy Rain
3:00 PM 51.8 °F - 50.0 °F 94% 29.33 in 2.5 mi SSE 31.1 mph 42.6 mph 0.01 in Rain Rain
3:14 PM 51.8 °F - 50.0 °F 94% 29.31 in 2.0 mi SSE 32.2 mph 43.7 mph 0.06 in Rain Heavy Rain
3:29 PM 51.8 °F - 50.0 °F 94% 29.27 in 3.0 mi SSE 33.4 mph 42.6 mph 0.11 in Rain Rain
3:53 PM 52.0 °F - 50.0 °F 93% 29.21 in 2.5 mi SSE 38.0 mph 51.8 mph 0.20 in Rain Light Rain
4:16 PM 51.8 °F - 50.0 °F 94% 29.15 in 2.0 mi SSE 47.2 mph 55.2 mph 0.07 in   Overcast
4:38 PM 51.8 °F - 50.0 °F 94% 29.04 in 1.5 mi SSE 56.4 mph 71.3 mph 0.14 in   Overcast
4:53 PM 52.0 °F - 50.0 °F 93% 29.00 in 1.5 mi SSE 62.1 mph 76.0 mph 0.14 in   Overcast
5:22 PM 51.8 °F - 51.8 °F 100% 28.97 in 1.0 mi SSE 57.5 mph 74.8 mph 0.04 in   Overcast
5:30 PM 51.8 °F - 51.8 °F 100% 28.95 in 1.2 mi SSE 58.7 mph 72.5 mph 0.04 in   Overcast
5:40 PM 53.6 °F - 51.8 °F 94% 28.95 in 1.5 mi SSE 57.5 mph 76.0 mph 0.04 in   Overcast
5:53 PM 53.1 °F - - N/A% 28.98 in 2.5 mi South 49.5 mph 76.0 mph 0.04 in   Overcast
6:01 PM 53.6 °F - 51.8 °F 94% 28.99 in 3.0 mi SSE 43.7 mph 62.1 mph N/A   Overcast
6:29 PM 55.4 °F - 53.6 °F 94% 29.02 in 10.0 mi South 33.4 mph 49.5 mph 0.04 in   Scattered Clouds
6:53 PM 57.0 °F - 54.0 °F 89% 29.02 in 10.0 mi South 29.9 mph 40.3 mph 0.05 in   Scattered Clouds
7:53 PM 59.0 °F - 48.9 °F 69% 29.04 in 10.0 mi SSW 32.2 mph 43.7 mph 0.00 in   Scattered Clouds
8:53 PM 55.0 °F - 46.9 °F 74% 29.08 in 10.0 mi SW 39.1 mph 48.3 mph N/A   Clear
9:22 PM 55.4 °F - 46.4 °F 72% 29.12 in 10.0 mi SW 35.7 mph 43.7 mph N/A   Mostly Cloudy
9:45 PM 53.6 °F - 46.4 °F 77% 29.12 in 10.0 mi WSW 24.2 mph 32.2 mph N/A   Scattered Clouds
9:53 PM 52.0 °F - 46.9 °F 83% 29.14 in 10.0 mi WSW 21.9 mph 32.2 mph N/A   Clear
10:53 PM 50.0 °F - 45.0 °F 83% 29.18 in 10.0 mi WSW 32.2 mph 42.6 mph N/A   Clear
11:20 PM 48.2 °F - 44.6 °F 87% 29.22 in 5.0 mi WSW 32.2 mph 42.6 mph 0.00 in Rain Light Rain
11:35 PM 48.2 °F - 44.6 °F 87% 29.21 in 6.0 mi WSW 26.5 mph 40.3 mph 0.00 in Rain Light Rain
11:53 PM 48.0 °F - 44.1 °F 86% 29.24 in 7.0 mi West 28.8 mph 38.0 mph 0.00 in Rain Light Rain